DLH7LY ESSA-EDDF

Flight info

Callsign DLH7LY
Flight time 1h 50m
Altitude 38000
Route NOSLI N850 ABAMA DCT SONAL DCT POVEL DCT RIMET/N0403F310 T157 KOKEB/N0352F230 T157 KERAX KERAX5A
Aircraft A320/M-SDE2E3FGIJ1LORWXYZ/HB1

Departure

Time 2026-05-05 13:32
Airport Stockholm-Arlanda Airport (ESSA)

Arrival

Time 2026-05-05 15:22
Airport Frankfurt Main Airport (EDDF)
Time Latitude Longitude Altitude Speed Heading
2026-05-05 12:58 59.65397 17.93534 138 ft 0 kts 75°
2026-05-05 13:21 59.65391 17.93492 138 ft 4 kts 73°
2026-05-05 13:21 59.65382 17.93441 138 ft 4 kts 66°
2026-05-05 13:21 59.65369 17.93398 138 ft 4 kts 34°
2026-05-05 13:21 59.65356 17.93388 138 ft 0 kts 345°
2026-05-05 13:26 59.65380 17.93375 138 ft 7 kts 345°
2026-05-05 13:26 59.65438 17.93346 138 ft 10 kts 346°
2026-05-05 13:26 59.65512 17.93316 138 ft 12 kts 322°
2026-05-05 13:26 59.65513 17.93164 138 ft 13 kts 256°
2026-05-05 13:27 59.65489 17.92979 138 ft 15 kts 256°
2026-05-05 13:27 59.65449 17.92777 138 ft 17 kts 242°
2026-05-05 13:27 59.65468 17.92587 138 ft 17 kts 331°
2026-05-05 13:27 59.65581 17.92501 138 ft 18 kts 344°
2026-05-05 13:28 59.65707 17.92436 138 ft 19 kts 347°
2026-05-05 13:28 59.65838 17.92421 138 ft 19 kts 33°
2026-05-05 13:28 59.65966 17.92494 138 ft 20 kts 11°
2026-05-05 13:28 59.66109 17.92543 138 ft 22 kts 11°
2026-05-05 13:29 59.66263 17.92604 138 ft 23 kts 10°
2026-05-05 13:29 59.66418 17.92657 138 ft 19 kts
2026-05-05 13:29 59.66501 17.92630 138 ft 10 kts 339°
2026-05-05 13:29 59.66587 17.92565 139 ft 15 kts 334°
2026-05-05 13:30 59.66604 17.92405 141 ft 13 kts 236°
2026-05-05 13:30 59.66517 17.92334 142 ft 13 kts 189°
2026-05-05 13:30 59.66496 17.92327 142 ft 0 kts 189°
2026-05-05 13:31 59.66272 17.92244 144 ft 74 kts 191°
2026-05-05 13:31 59.65540 17.91977 144 ft 137 kts 191°
2026-05-05 13:31 59.64455 17.91586 416 ft 164 kts 193°
2026-05-05 13:32 59.63356 17.91225 1300 ft 159 kts 194°
2026-05-05 13:32 59.62229 17.90806 1852 ft 174 kts 199°
2026-05-05 13:32 59.61175 17.89512 2251 ft 189 kts 235°
2026-05-05 13:32 59.60426 17.87201 2665 ft 211 kts 242°
2026-05-05 13:33 59.59649 17.84695 3534 ft 215 kts 241°
2026-05-05 13:33 59.58871 17.82202 4460 ft 218 kts 240°
2026-05-05 13:33 59.58097 17.79514 5111 ft 236 kts 244°
2026-05-05 13:33 59.57310 17.76531 5839 ft 251 kts 242°
2026-05-05 13:34 59.56198 17.73797 6731 ft 261 kts 224°
2026-05-05 13:34 59.54649 17.71853 7683 ft 268 kts 210°
2026-05-05 13:34 59.52982 17.70195 8724 ft 269 kts 210°
2026-05-05 13:34 59.51298 17.68543 9711 ft 272 kts 210°
2026-05-05 13:35 59.49564 17.66842 10292 ft 290 kts 210°
2026-05-05 13:35 59.47707 17.65019 10856 ft 303 kts 211°
2026-05-05 13:35 59.45807 17.63163 11733 ft 306 kts 212°
2026-05-05 13:35 59.43896 17.61304 12692 ft 307 kts 213°
2026-05-05 13:36 59.41983 17.59444 13648 ft 307 kts 214°
2026-05-05 13:36 59.40069 17.57576 14458 ft 307 kts 214°
2026-05-05 13:36 59.38158 17.55703 15280 ft 307 kts 214°
2026-05-05 13:36 59.36243 17.53827 16108 ft 307 kts 215°
2026-05-05 13:37 59.34329 17.51957 16932 ft 308 kts 215°
2026-05-05 13:37 59.32413 17.50086 17743 ft 308 kts 215°
2026-05-05 13:37 59.30495 17.48214 18491 ft 309 kts 216°
2026-05-05 13:37 59.28564 17.46330 19060 ft 311 kts 215°
2026-05-05 13:38 59.26608 17.44420 19592 ft 317 kts 215°
2026-05-05 13:38 59.24616 17.42484 20172 ft 321 kts 215°
2026-05-05 13:38 59.22602 17.40541 20779 ft 324 kts 214°
2026-05-05 13:38 59.20576 17.38593 21362 ft 327 kts 214°
2026-05-05 13:39 59.18527 17.36618 21935 ft 330 kts 214°
2026-05-05 13:39 59.16462 17.34625 22509 ft 332 kts 214°
2026-05-05 13:39 59.14377 17.32617 23068 ft 335 kts 214°
2026-05-05 13:39 59.12278 17.30603 23599 ft 338 kts 214°
2026-05-05 13:40 59.10158 17.28571 24074 ft 341 kts 214°
2026-05-05 13:40 59.08029 17.26502 24563 ft 341 kts 217°
2026-05-05 13:40 59.06118 17.23961 24995 ft 336 kts 225°
2026-05-05 13:40 59.04327 17.21041 25450 ft 338 kts 226°
2026-05-05 13:41 59.02520 17.18107 25852 ft 340 kts 225°
2026-05-05 13:41 59.00691 17.15152 26257 ft 343 kts 225°
2026-05-05 13:41 58.98845 17.12181 26682 ft 346 kts 225°
2026-05-05 13:41 58.96985 17.09196 27113 ft 349 kts 225°
2026-05-05 13:42 58.95110 17.06192 27527 ft 351 kts 225°
2026-05-05 13:42 58.93221 17.03169 27962 ft 353 kts 225°
2026-05-05 13:42 58.91324 17.00134 28382 ft 355 kts 225°
2026-05-05 13:42 58.89412 16.97074 28800 ft 358 kts 225°
2026-05-05 13:43 58.87489 16.94001 29206 ft 360 kts 225°
2026-05-05 13:43 58.85418 16.91189 29592 ft 369 kts 217°
2026-05-05 13:43 58.83186 16.88702 29986 ft 372 kts 217°
2026-05-05 13:43 58.80932 16.86211 30310 ft 374 kts 217°
2026-05-05 13:44 58.78664 16.83722 30618 ft 377 kts 217°
2026-05-05 13:44 58.76375 16.81218 30836 ft 380 kts 216°
2026-05-05 13:44 58.74064 16.78694 31114 ft 383 kts 216°
2026-05-05 13:44 58.71735 16.76156 31409 ft 386 kts 216°
2026-05-05 13:45 58.69396 16.73612 31770 ft 386 kts 216°
2026-05-05 13:45 58.67065 16.71079 32180 ft 385 kts 216°
2026-05-05 13:45 58.64734 16.68549 32592 ft 384 kts 217°
2026-05-05 13:45 58.62404 16.66019 32999 ft 384 kts 217°
2026-05-05 13:46 58.60087 16.63504 33414 ft 383 kts 217°
2026-05-05 13:46 58.57766 16.60993 33833 ft 383 kts 217°
2026-05-05 13:46 58.55448 16.58488 34176 ft 382 kts 216°
2026-05-05 13:46 58.53130 16.55981 34450 ft 383 kts 216°
2026-05-05 13:47 58.50806 16.53469 34647 ft 385 kts 216°
2026-05-05 13:47 58.48468 16.50949 34893 ft 386 kts 216°
2026-05-05 13:47 58.46120 16.48430 35138 ft 388 kts 216°
2026-05-05 13:47 58.43760 16.45905 35391 ft 389 kts 215°
2026-05-05 13:48 58.41403 16.43383 35641 ft 390 kts 215°
2026-05-05 13:48 58.39034 16.40850 35875 ft 391 kts 215°
2026-05-05 13:48 58.36657 16.38308 36118 ft 392 kts 215°
2026-05-05 13:48 58.34277 16.35762 36339 ft 393 kts 215°
2026-05-05 13:49 58.31887 16.33216 36570 ft 394 kts 215°
2026-05-05 13:49 58.29492 16.30670 36799 ft 395 kts 214°
2026-05-05 13:49 58.27090 16.28118 36975 ft 396 kts 214°
2026-05-05 13:49 58.24685 16.25564 37224 ft 397 kts 214°
2026-05-05 13:50 58.22270 16.23008 37451 ft 398 kts 214°
2026-05-05 13:50 58.19854 16.20459 37669 ft 398 kts 214°
2026-05-05 13:50 58.17423 16.17900 37853 ft 400 kts 214°
2026-05-05 13:50 58.15028 16.15384 37895 ft 399 kts 214°
2026-05-05 13:51 58.10144 16.10267 37894 ft 398 kts 214°
2026-05-05 13:51 58.05332 16.05237 37897 ft 398 kts 214°
2026-05-05 13:52 58.00487 16.00179 37866 ft 399 kts 214°
2026-05-05 13:52 57.95616 15.95101 37893 ft 400 kts 214°
2026-05-05 13:53 57.90743 15.90048 37891 ft 400 kts 214°
2026-05-05 13:53 57.85859 15.85012 37892 ft 400 kts 214°
2026-05-05 13:54 57.80980 15.79982 37895 ft 400 kts 214°
2026-05-05 13:54 57.76098 15.74960 37895 ft 400 kts 214°
2026-05-05 13:55 57.71215 15.69954 37895 ft 400 kts 214°
2026-05-05 13:55 57.66325 15.64961 37895 ft 400 kts 214°
2026-05-05 13:56 57.61434 15.59983 37895 ft 400 kts 214°
2026-05-05 13:56 57.56544 15.55015 37895 ft 400 kts 213°
2026-05-05 13:57 57.51647 15.50063 37865 ft 400 kts 213°
2026-05-05 13:57 57.46749 15.45130 37873 ft 401 kts 213°
2026-05-05 13:58 57.41850 15.40199 37877 ft 401 kts 213°
2026-05-05 13:58 57.36943 15.35282 37881 ft 401 kts 213°
2026-05-05 13:59 57.29581 15.27929 37886 ft 401 kts 213°
2026-05-05 14:00 57.23045 15.21426 37855 ft 401 kts 213°
2026-05-05 14:00 57.18131 15.16539 37868 ft 402 kts 213°
2026-05-05 14:01 57.13203 15.11666 37873 ft 402 kts 213°
2026-05-05 14:01 57.07460 15.06037 37878 ft 402 kts 213°
2026-05-05 14:02 57.02519 15.01190 37881 ft 402 kts 213°
2026-05-05 14:02 56.98381 14.97147 37855 ft 403 kts 212°
2026-05-05 14:03 56.93436 14.92325 37868 ft 403 kts 213°
2026-05-05 14:03 56.88480 14.87504 37871 ft 403 kts 212°
2026-05-05 14:04 56.83528 14.82695 37877 ft 403 kts 212°
2026-05-05 14:04 56.78571 14.77894 37896 ft 403 kts 212°
2026-05-05 14:05 56.73644 14.73132 37874 ft 403 kts 212°
2026-05-05 14:05 56.68644 14.68331 37887 ft 404 kts 212°
2026-05-05 14:06 56.63708 14.63616 37892 ft 404 kts 212°
2026-05-05 14:06 56.58733 14.58868 37893 ft 404 kts 212°
2026-05-05 14:07 56.53764 14.54134 37899 ft 404 kts 212°
2026-05-05 14:07 56.48790 14.49395 37873 ft 404 kts 212°
2026-05-05 14:08 56.43807 14.44684 37876 ft 404 kts 212°
2026-05-05 14:08 56.38822 14.39962 37885 ft 405 kts 212°
2026-05-05 14:09 56.33847 14.35263 37887 ft 405 kts 212°
2026-05-05 14:09 56.28848 14.30585 37892 ft 405 kts 212°
2026-05-05 14:10 56.23846 14.25912 37869 ft 405 kts 211°
2026-05-05 14:10 56.18841 14.21243 37880 ft 405 kts 211°
2026-05-05 14:11 56.13837 14.16582 37883 ft 406 kts 211°
2026-05-05 14:11 56.08824 14.11933 37884 ft 406 kts 211°
2026-05-05 14:12 56.03808 14.07299 37885 ft 406 kts 211°
2026-05-05 14:12 55.98790 14.02676 37878 ft 406 kts 211°
2026-05-05 14:13 55.93768 13.98051 37893 ft 406 kts 211°
2026-05-05 14:13 55.88744 13.93450 37901 ft 406 kts 211°
2026-05-05 14:14 55.83715 13.88854 37905 ft 406 kts 211°
2026-05-05 14:14 55.78693 13.84275 37884 ft 406 kts 211°
2026-05-05 14:15 55.73698 13.79724 37900 ft 406 kts 211°
2026-05-05 14:15 55.68672 13.75175 37905 ft 406 kts 211°
2026-05-05 14:16 55.63637 13.70644 37905 ft 406 kts 211°
2026-05-05 14:16 55.58605 13.66111 37907 ft 406 kts 211°
2026-05-05 14:17 55.53572 13.61583 37885 ft 406 kts 211°
2026-05-05 14:17 55.48535 13.57068 37895 ft 406 kts 211°
2026-05-05 14:18 55.43497 13.52571 37902 ft 406 kts 211°
2026-05-05 14:18 55.38449 13.48079 37907 ft 406 kts 211°
2026-05-05 14:19 55.33401 13.43602 37912 ft 406 kts 211°
2026-05-05 14:19 55.28355 13.39135 37914 ft 406 kts 211°
2026-05-05 14:20 55.23301 13.34662 37915 ft 407 kts 211°
2026-05-05 14:20 55.18250 13.30225 37917 ft 407 kts 210°
2026-05-05 14:21 55.13223 13.25827 37941 ft 407 kts 210°
2026-05-05 14:21 55.08166 13.21396 37936 ft 406 kts 210°
2026-05-05 14:22 55.03112 13.16973 37916 ft 406 kts 210°
2026-05-05 14:22 54.98055 13.12568 37924 ft 407 kts 210°
2026-05-05 14:23 54.92991 13.08169 37925 ft 407 kts 210°
2026-05-05 14:23 54.87922 13.03788 37928 ft 407 kts 210°
2026-05-05 14:24 54.82855 12.99417 37934 ft 407 kts 210°
2026-05-05 14:24 54.77785 12.95053 37922 ft 407 kts 210°
2026-05-05 14:25 54.72712 12.90707 37927 ft 407 kts 210°
2026-05-05 14:25 54.67640 12.86360 37932 ft 407 kts 210°
2026-05-05 14:26 54.62570 12.82030 37937 ft 407 kts 210°
2026-05-05 14:26 54.57499 12.77720 37917 ft 406 kts 210°
2026-05-05 14:27 54.52426 12.73423 37932 ft 406 kts 210°
2026-05-05 14:27 54.47390 12.69161 37942 ft 406 kts 210°
2026-05-05 14:28 54.42324 12.64883 37942 ft 406 kts 210°
2026-05-05 14:28 54.37261 12.60616 37946 ft 405 kts 210°
2026-05-05 14:29 54.32199 12.56364 37936 ft 405 kts 210°
2026-05-05 14:29 54.27134 12.52133 37941 ft 404 kts 210°
2026-05-05 14:30 54.22084 12.47918 37945 ft 404 kts 210°
2026-05-05 14:30 54.17031 12.43709 37947 ft 404 kts 210°
2026-05-05 14:31 54.11988 12.39525 37950 ft 403 kts 210°
2026-05-05 14:31 54.06937 12.35338 37920 ft 403 kts 210°
2026-05-05 14:32 54.01899 12.31181 37921 ft 403 kts 210°
2026-05-05 14:32 53.96857 12.27034 37924 ft 403 kts 210°
2026-05-05 14:33 53.91819 12.22891 37924 ft 402 kts 210°
2026-05-05 14:33 53.86771 12.18763 37903 ft 402 kts 209°
2026-05-05 14:34 53.81767 12.14682 37936 ft 401 kts 209°
2026-05-05 14:34 53.76741 12.10581 37938 ft 401 kts 209°
2026-05-05 14:35 53.71715 12.06496 37936 ft 401 kts 209°
2026-05-05 14:35 53.66690 12.02434 37949 ft 401 kts 209°
2026-05-05 14:36 53.61662 11.98377 37912 ft 401 kts 209°
2026-05-05 14:36 53.56629 11.94327 37924 ft 401 kts 209°
2026-05-05 14:37 53.51604 11.90281 37922 ft 400 kts 209°
2026-05-05 14:37 53.46577 11.86241 37927 ft 400 kts 209°
2026-05-05 14:38 53.41545 11.82221 37925 ft 400 kts 209°
2026-05-05 14:38 53.36512 11.78207 37887 ft 401 kts 209°
2026-05-05 14:39 53.31456 11.74187 37890 ft 403 kts 208°
2026-05-05 14:39 53.26397 11.70168 37899 ft 403 kts 209°
2026-05-05 14:40 53.21323 11.66145 37898 ft 404 kts 208°
2026-05-05 14:40 53.16246 11.62147 37877 ft 404 kts 208°
2026-05-05 14:41 53.11151 11.58153 37884 ft 405 kts 208°
2026-05-05 14:41 53.06095 11.54186 37892 ft 405 kts 208°
2026-05-05 14:42 53.00990 11.50190 37902 ft 405 kts 208°
2026-05-05 14:42 52.95886 11.46197 37899 ft 405 kts 208°
2026-05-05 14:43 52.90783 11.42211 37906 ft 406 kts 208°
2026-05-05 14:43 52.85672 11.38257 37903 ft 406 kts 208°
2026-05-05 14:44 52.80556 11.34299 37900 ft 406 kts 208°
2026-05-05 14:44 52.75444 11.30346 37904 ft 406 kts 208°
2026-05-05 14:45 52.70323 11.26396 37884 ft 406 kts 208°
2026-05-05 14:45 52.65221 11.22465 37903 ft 405 kts 208°
2026-05-05 14:46 52.60117 11.18546 37909 ft 404 kts 208°
2026-05-05 14:46 52.55017 11.14647 37913 ft 404 kts 208°
2026-05-05 14:47 52.49924 11.10761 37903 ft 404 kts 208°
2026-05-05 14:47 52.44832 11.06888 37912 ft 403 kts 208°
2026-05-05 14:48 52.39753 11.03032 37915 ft 402 kts 208°
2026-05-05 14:48 52.34696 10.99199 37911 ft 400 kts 208°
2026-05-05 14:49 52.29641 10.95389 37907 ft 399 kts 208°
2026-05-05 14:49 52.24592 10.91605 37909 ft 399 kts 207°
2026-05-05 14:50 52.19554 10.87830 37916 ft 398 kts 208°
2026-05-05 14:50 52.14541 10.84056 37910 ft 397 kts 208°
2026-05-05 14:51 52.09540 10.80273 37910 ft 396 kts 208°
2026-05-05 14:51 52.04618 10.76426 37903 ft 395 kts 209°
2026-05-05 14:52 51.99671 10.72532 37889 ft 395 kts 208°
2026-05-05 14:52 51.94725 10.68687 37893 ft 394 kts 208°
2026-05-05 14:53 51.89775 10.64865 37895 ft 394 kts 208°
2026-05-05 14:53 51.85659 10.61693 37893 ft 394 kts 208°
2026-05-05 14:54 51.80715 10.57889 37875 ft 394 kts 208°
2026-05-05 14:54 51.75774 10.54100 37884 ft 393 kts 207°
2026-05-05 14:55 51.70838 10.50328 37879 ft 392 kts 207°
2026-05-05 14:55 51.65911 10.46568 37881 ft 392 kts 207°
2026-05-05 14:56 51.60976 10.42803 37874 ft 392 kts 207°
2026-05-05 14:56 51.56051 10.39047 37862 ft 391 kts 207°
2026-05-05 14:57 51.51140 10.35320 37859 ft 391 kts 207°
2026-05-05 14:57 51.46234 10.31622 37860 ft 390 kts 207°
2026-05-05 14:58 51.41320 10.27914 37850 ft 390 kts 207°
2026-05-05 14:58 51.36355 10.24176 37366 ft 401 kts 206°
2026-05-05 14:59 51.33735 10.22650 36916 ft 403 kts 196°
2026-05-05 14:59 51.30968 10.21931 36487 ft 404 kts 186°
2026-05-05 14:59 51.28164 10.21851 36064 ft 402 kts 184°
2026-05-05 14:59 51.25380 10.21804 35646 ft 398 kts 184°
2026-05-05 15:00 51.22627 10.21747 35238 ft 395 kts 184°
2026-05-05 15:00 51.20815 10.21709 34972 ft 392 kts 184°
2026-05-05 15:00 51.17221 10.21630 34442 ft 387 kts 184°
2026-05-05 15:00 51.14540 10.21570 34058 ft 384 kts 184°
2026-05-05 15:01 51.11885 10.21516 33638 ft 380 kts 183°
2026-05-05 15:01 51.09253 10.21471 33197 ft 377 kts 183°
2026-05-05 15:01 51.06637 10.21429 32761 ft 374 kts 183°
2026-05-05 15:01 51.04039 10.21384 32331 ft 372 kts 183°
2026-05-05 15:02 51.01460 10.21338 31914 ft 370 kts 183°
2026-05-05 15:02 50.98854 10.21289 31494 ft 368 kts 183°
2026-05-05 15:02 50.96299 10.21242 31084 ft 366 kts 183°
2026-05-05 15:02 50.93789 10.21193 30687 ft 364 kts 183°
2026-05-05 15:03 50.91260 10.21146 30293 ft 363 kts 183°
2026-05-05 15:03 50.88744 10.21101 29898 ft 361 kts 183°
2026-05-05 15:03 50.86248 10.20915 29435 ft 357 kts 190°
2026-05-05 15:03 50.83858 10.19977 28984 ft 354 kts 201°
2026-05-05 15:04 50.81637 10.18335 28547 ft 352 kts 210°
2026-05-05 15:04 50.79633 10.16132 28109 ft 351 kts 218°
2026-05-05 15:04 50.77877 10.13448 27686 ft 351 kts 227°
2026-05-05 15:04 50.76426 10.10349 27258 ft 352 kts 236°
2026-05-05 15:05 50.74181 10.03479 26425 ft 351 kts 240°
2026-05-05 15:05 50.73084 10.00045 26023 ft 350 kts 240°
2026-05-05 15:05 50.71989 9.96631 25625 ft 348 kts 240°
2026-05-05 15:06 50.70896 9.93231 25226 ft 347 kts 240°
2026-05-05 15:06 50.69805 9.89837 24840 ft 346 kts 240°
2026-05-05 15:06 50.68717 9.86461 24457 ft 345 kts 240°
2026-05-05 15:06 50.67635 9.83101 24092 ft 343 kts 240°
2026-05-05 15:07 50.66555 9.79747 23716 ft 342 kts 240°
2026-05-05 15:07 50.65479 9.76407 23337 ft 341 kts 240°
2026-05-05 15:07 50.64351 9.73127 22909 ft 339 kts 235°
2026-05-05 15:07 50.62936 9.70190 22468 ft 335 kts 226°
2026-05-05 15:08 50.61252 9.67693 22041 ft 331 kts 217°
2026-05-05 15:08 50.59351 9.65679 21638 ft 328 kts 208°
2026-05-05 15:08 50.57399 9.63858 21197 ft 325 kts 213°
2026-05-05 15:08 50.55529 9.61832 20580 ft 329 kts 214°
2026-05-05 15:09 50.53648 9.59767 19960 ft 333 kts 214°
2026-05-05 15:09 50.51729 9.57669 19348 ft 336 kts 214°
2026-05-05 15:09 50.49800 9.55567 18749 ft 340 kts 214°
2026-05-05 15:09 50.47849 9.53445 18152 ft 342 kts 214°
2026-05-05 15:10 50.45891 9.51297 17510 ft 345 kts 214°
2026-05-05 15:10 50.43931 9.49140 16755 ft 340 kts 214°
2026-05-05 15:10 50.42012 9.47025 15927 ft 335 kts 214°
2026-05-05 15:10 50.40122 9.44938 15139 ft 330 kts 214°
2026-05-05 15:11 50.38254 9.42872 14360 ft 326 kts 214°
2026-05-05 15:11 50.36409 9.40830 13594 ft 323 kts 214°
2026-05-05 15:11 50.34586 9.38809 12751 ft 320 kts 214°
2026-05-05 15:11 50.32803 9.36836 11927 ft 316 kts 214°
2026-05-05 15:12 50.31022 9.34868 11350 ft 306 kts 214°
2026-05-05 15:12 50.29320 9.32988 11023 ft 289 kts 214°
2026-05-05 15:12 50.27700 9.31196 10459 ft 283 kts 214°
2026-05-05 15:12 50.26125 9.29450 9864 ft 280 kts 214°
2026-05-05 15:13 50.24529 9.27678 9191 ft 277 kts 214°
2026-05-05 15:13 50.22961 9.25951 8503 ft 274 kts 214°
2026-05-05 15:13 50.21431 9.24280 8057 ft 271 kts 214°
2026-05-05 15:13 50.19857 9.22574 7736 ft 272 kts 214°
2026-05-05 15:14 50.18314 9.20906 7177 ft 268 kts 214°
2026-05-05 15:14 50.16785 9.19268 6503 ft 266 kts 214°
2026-05-05 15:14 50.15320 9.17613 5838 ft 262 kts 221°
2026-05-05 15:14 50.14293 9.15311 5173 ft 260 kts 249°
2026-05-05 15:15 50.14079 9.12539 4504 ft 260 kts 271°
2026-05-05 15:15 50.14227 9.09739 4085 ft 260 kts 273°
2026-05-05 15:15 50.14411 9.06917 3992 ft 262 kts 274°
2026-05-05 15:15 50.14563 9.04094 3993 ft 261 kts 265°
2026-05-05 15:16 50.14148 9.01350 3999 ft 261 kts 249°
2026-05-05 15:16 50.13483 8.98722 4000 ft 261 kts 247°
2026-05-05 15:16 50.12839 8.96086 4002 ft 259 kts 248°
2026-05-05 15:16 50.12219 8.93441 3999 ft 257 kts 249°
2026-05-05 15:17 50.11631 8.90923 3999 ft 238 kts 249°
2026-05-05 15:17 50.11084 8.88586 3998 ft 221 kts 249°
2026-05-05 15:17 50.10575 8.86424 3972 ft 207 kts 248°
2026-05-05 15:17 50.10089 8.84356 3784 ft 201 kts 249°
2026-05-05 15:18 50.09609 8.82322 3550 ft 199 kts 248°
2026-05-05 15:18 50.09131 8.80294 3295 ft 200 kts 248°
2026-05-05 15:18 50.08659 8.78294 3053 ft 193 kts 248°
2026-05-05 15:18 50.08206 8.76374 2777 ft 185 kts 249°
2026-05-05 15:19 50.07808 8.74550 2518 ft 172 kts 253°
2026-05-05 15:19 50.07535 8.72776 2236 ft 169 kts 256°
2026-05-05 15:19 50.07296 8.70959 2003 ft 173 kts 256°
2026-05-05 15:19 50.06950 8.69159 1830 ft 175 kts 251°
2026-05-05 15:20 50.06538 8.67381 1630 ft 175 kts 249°
2026-05-05 15:20 50.06134 8.65597 1385 ft 171 kts 250°
2026-05-05 15:20 50.05747 8.63903 1089 ft 160 kts 248°
2026-05-05 15:20 50.05339 8.62340 846 ft 152 kts 248°
2026-05-05 15:21 50.04990 8.60835 650 ft 145 kts 251°
2026-05-05 15:21 50.04658 8.59370 500 ft 143 kts 250°
2026-05-05 15:21 50.04318 8.57933 369 ft 139 kts 250°
2026-05-05 15:21 50.04039 8.56742 357 ft 92 kts 250°
2026-05-05 15:22 50.03890 8.56063 358 ft 42 kts 259°
2026-05-05 15:22 50.03892 8.55787 352 ft 15 kts 279°
2026-05-05 15:22 50.03895 8.55766 354 ft 0 kts 279°
2026-05-05 15:23 50.03899 8.55727 356 ft 6 kts 279°
2026-05-05 15:23 50.03914 8.55655 355 ft 11 kts 305°
2026-05-05 15:23 50.03987 8.55676 354 ft 11 kts 63°
2026-05-05 15:23 50.04007 8.55761 355 ft 8 kts 72°
2026-05-05 15:24 50.04031 8.55874 358 ft 9 kts 71°
2026-05-05 15:24 50.04055 8.55978 356 ft 15 kts 70°
2026-05-05 15:24 50.04086 8.56107 357 ft 9 kts 69°
2026-05-05 15:24 50.04098 8.56156 360 ft 0 kts 69°
2026-05-05 15:25 50.04103 8.56178 356 ft 7 kts 69°
2026-05-05 15:25 50.04118 8.56241 358 ft 7 kts 68°
2026-05-05 15:25 50.04167 8.56280 353 ft 11 kts 352°
2026-05-05 15:26 50.04252 8.56235 362 ft 13 kts 340°
2026-05-05 15:26 50.04291 8.56130 355 ft 12 kts 275°
2026-05-05 15:26 50.04350 8.56051 360 ft 12 kts 339°
2026-05-05 15:26 50.04427 8.56045 363 ft 11 kts 32°
2026-05-05 15:27 50.04455 8.56127 357 ft 6 kts 69°
2026-05-05 15:27 50.04464 8.56176 361 ft 4 kts 90°
2026-05-05 15:27 50.04455 8.56192 365 ft 1 kts 144°
2026-05-05 15:27 50.04433 8.56205 360 ft 2 kts 163°
2026-05-05 15:28 50.04422 8.56211 361 ft 3 kts 159°
2026-05-05 15:28 50.04412 8.56217 358 ft 1 kts 159°
2026-05-05 15:28 50.04409 8.56218 357 ft 0 kts 159°